Date String (YYYY-MM-DD hh:mm:ss) UTC,Instrument flags,Ambient pressure (hPa),Sample flow (lpm),Bypass flow (lpm),Sample temperature (°C),Ambient temperature (°C),ASC tube jacket temperature (°C),LED temperature (°C),Box temperature (°C),Sample RH (%),Span deviation,Mass concentration (μg/m³),Mass concentration (μg/m³),Mass concentration (μg/m³)
DateTimeUTC,F1_M11,P_M11,Q1_M11,Q2_M11,T1_M11,T2_M11,T3_M11,T4_M11,T5_M11,U1_M11,ZSPAN_M11,X2_M11,X0_M11,X1_M11
2022-02-08 17:00:00,,0829.6,5.00,0.00,22.3,21.7,00.0,31.4,24.0,09.5,0000.0,0002.94,0009.54,0001.79
2022-02-08 17:01:00,,0829.6,5.01,0.00,22.3,21.7,00.0,31.4,24.0,09.5,0000.0,0002.87,0009.79,0001.79
2022-02-08 17:02:00,,0829.5,4.99,0.00,22.3,21.7,00.0,31.4,24.0,08.5,0000.0,0002.81,0011.07,0001.78
2022-02-08 17:03:00,,0829.5,4.99,0.00,22.3,21.7,00.0,31.4,24.0,07.8,0000.0,0002.73,0010.88,0001.75
2022-02-08 17:04:00,,0829.5,5.01,0.00,22.3,21.7,00.0,31.4,24.0,07.5,0000.0,0002.59,0010.59,0001.68
2022-02-08 17:05:00,,0829.5,5.00,0.00,22.3,21.7,00.0,31.4,24.0,08.5,0000.0,0002.53,0010.50,0001.64
2022-02-08 17:06:00,,0829.5,5.00,0.00,22.3,21.7,00.0,31.4,24.0,09.1,0000.0,0002.43,0009.95,0001.61
2022-02-08 17:07:00,,0829.5,5.00,0.00,22.3,21.7,00.0,31.4,24.1,09.4,0000.0,0002.35,0008.76,0001.59
2022-02-08 17:08:00,,0829.5,4.99,0.00,22.4,21.8,00.0,31.4,24.1,08.5,0000.0,0002.32,0009.38,0001.56
2022-02-08 17:09:00,,0829.6,5.01,0.00,22.4,21.8,00.0,31.4,24.2,08.9,0000.0,0002.20,0008.64,0001.53
2022-02-08 17:10:00,,0829.6,4.98,0.00,22.4,21.9,00.0,31.4,24.2,08.3,0000.0,0002.19,0008.85,0001.50
2022-02-08 17:11:00,,0829.7,5.00,0.00,22.4,21.9,00.0,31.4,24.2,08.3,0000.0,0002.17,0009.06,0001.47
2022-02-08 17:12:00,,0829.7,5.01,0.00,22.4,21.9,00.0,31.4,24.2,08.9,0000.0,0002.12,0008.61,0001.43
2022-02-08 17:13:00,,0829.6,5.01,0.00,22.5,21.9,00.0,31.4,24.2,09.1,0000.0,0002.08,0007.22,0001.41
2022-02-08 17:14:00,,0829.8,4.99,0.00,22.5,21.9,00.0,31.4,24.3,09.1,0000.0,0002.14,0007.36,0001.44
2022-02-08 17:15:00,,0829.8,5.01,0.00,22.5,22.0,00.0,31.4,24.3,09.0,0000.0,0002.30,0007.63,0001.48
2022-02-08 17:16:00,,0829.7,5.00,0.00,22.5,22.0,00.0,31.4,24.3,08.7,0000.0,0002.29,0008.42,0001.48
2022-02-08 17:17:00,,0829.9,4.99,0.00,22.6,22.0,00.0,31.4,24.3,08.1,0000.0,0002.26,0008.64,0001.46
2022-02-08 17:18:00,,0829.6,4.99,0.00,22.6,22.0,00.0,31.5,24.3,07.9,0000.0,0002.21,0008.55,0001.41
2022-02-08 17:19:00,,0829.5,5.00,0.00,22.6,22.0,00.0,31.5,24.3,07.0,0000.0,0002.12,0007.52,0001.35
2022-02-08 17:20:00,,0829.6,4.99,0.00,22.6,21.9,00.0,31.5,24.3,07.1,0000.0,0002.01,0006.96,0001.28
2022-02-08 17:21:00,,0829.5,5.01,0.00,22.6,21.9,00.0,31.5,24.3,06.9,0000.0,0001.88,0006.88,0001.21
2022-02-08 17:22:00,,0829.5,4.99,0.00,22.6,21.9,00.0,31.5,24.3,06.6,0000.0,0001.77,0006.24,0001.16
2022-02-08 17:23:00,,0829.6,5.02,0.00,22.6,21.9,00.0,31.5,24.3,06.8,0000.0,0001.70,0006.07,0001.11
2022-02-08 17:24:00,,0829.6,4.99,0.00,22.6,21.8,00.0,31.5,24.3,07.3,0000.0,0001.58,0005.82,0001.04
2022-02-08 17:25:00,,0829.5,5.00,0.00,22.6,21.9,00.0,31.5,24.3,06.9,0000.0,0001.48,0005.64,0000.95
2022-02-08 17:26:00,,0829.6,5.01,0.00,22.6,21.9,00.0,31.5,24.4,06.8,0000.0,0001.30,0006.08,0000.86
2022-02-08 17:27:00,,0829.6,4.99,0.00,22.6,21.9,00.0,31.5,24.3,06.8,0000.0,0001.18,0005.07,0000.79
2022-02-08 17:28:00,,0829.7,5.00,0.00,22.6,21.9,00.0,31.5,24.3,07.0,0000.0,0001.12,0003.82,0000.74
2022-02-08 17:29:00,,0829.7,5.01,0.00,22.6,21.8,00.0,31.6,24.4,07.1,0000.0,0001.07,0003.74,0000.70
2022-02-08 17:30:00,,0829.6,4.99,0.00,22.6,21.8,00.0,31.6,24.3,07.0,0000.0,0001.02,0003.69,0000.69
2022-02-08 17:31:00,,0829.6,5.00,0.00,22.7,21.7,00.0,31.6,24.4,07.5,0000.0,0001.04,0004.26,0000.70
2022-02-08 17:32:00,,0829.7,5.01,0.00,22.7,21.7,00.0,31.6,24.4,08.3,0000.0,0001.12,0004.64,0000.75
2022-02-08 17:33:00,,0829.7,4.99,0.00,22.7,21.7,00.0,31.6,24.4,07.9,0000.0,0001.24,0005.24,0000.78
2022-02-08 17:34:00,,0829.7,5.00,0.00,22.7,21.6,00.0,31.6,24.3,07.4,0000.0,0001.25,0006.56,0000.79
2022-02-08 17:35:00,,0829.7,5.00,0.00,22.7,21.6,00.0,31.6,24.4,07.3,0000.0,0001.27,0006.60,0000.80
2022-02-08 17:36:00,,0829.7,4.99,0.00,22.7,21.7,00.0,31.6,24.4,06.8,0000.0,0001.29,0006.59,0000.81
2022-02-08 17:37:00,,0829.8,5.01,0.00,22.7,21.7,00.0,31.6,24.4,07.1,0000.0,0001.27,0005.75,0000.83
2022-02-08 17:38:00,,0829.7,4.98,0.00,22.7,21.7,00.0,31.6,24.4,07.2,0000.0,0001.33,0005.57,0000.86
2022-02-08 17:39:00,,0829.7,5.01,0.00,22.7,21.8,00.0,31.6,24.4,07.5,0000.0,0001.34,0005.56,0000.88
2022-02-08 17:40:00,,0829.8,5.00,0.00,22.7,21.8,00.0,31.6,24.4,07.7,0000.0,0001.37,0005.60,0000.91
2022-02-08 17:41:00,,0829.8,5.01,0.00,22.7,21.9,00.0,31.6,24.4,07.8,0000.0,0001.43,0006.72,0000.95
2022-02-08 17:42:00,,0829.8,4.99,0.00,22.7,21.9,00.0,31.6,24.4,08.5,0000.0,0001.48,0006.70,0000.98
2022-02-08 17:43:00,,0829.8,5.01,0.00,22.7,21.9,00.0,31.6,24.4,08.6,0000.0,0001.53,0006.07,0001.00
2022-02-08 17:44:00,,0829.7,5.00,0.00,22.7,22.0,00.0,31.6,24.4,07.8,0000.0,0001.46,0006.62,0000.99
2022-02-08 17:45:00,,0829.7,4.99,0.00,22.7,22.0,00.0,31.6,24.4,08.1,0000.0,0001.53,0005.39,0001.00
2022-02-08 17:46:00,,0829.7,5.01,0.00,22.7,22.0,00.0,31.6,24.4,08.7,0000.0,0001.61,0005.43,0001.06
2022-02-08 17:47:00,,0829.6,4.98,0.00,22.7,22.0,00.0,31.6,24.4,07.8,0000.0,0001.67,0005.58,0001.09
2022-02-08 17:48:00,,0829.6,5.01,0.00,22.7,22.0,00.0,31.6,24.3,07.1,0000.0,0001.68,0005.65,0001.08
2022-02-08 17:49:00,,0829.7,4.99,0.00,22.7,21.9,00.0,31.6,24.4,07.1,0000.0,0001.65,0005.43,0001.06
2022-02-08 17:50:00,,0829.7,5.01,0.00,22.7,21.9,00.0,31.6,24.4,06.9,0000.0,0001.59,0005.30,0001.02
2022-02-08 17:51:00,,0829.6,4.99,0.00,22.7,21.8,00.0,31.6,24.4,06.9,0000.0,0001.54,0005.68,0000.99
2022-02-08 17:52:00,,0829.7,5.01,0.00,22.7,21.8,00.0,31.7,24.4,07.2,0000.0,0001.47,0004.82,0000.95
2022-02-08 17:53:00,,0829.8,4.99,0.00,22.7,21.8,00.0,31.7,24.4,07.4,0000.0,0001.42,0004.77,0000.90
2022-02-08 17:54:00,,0829.7,5.00,0.00,22.7,21.8,00.0,31.7,24.4,07.5,0000.0,0001.32,0004.72,0000.84
2022-02-08 17:55:00,,0829.7,4.99,0.00,22.8,21.9,00.0,31.7,24.5,07.5,0000.0,0001.24,0003.61,0000.81
2022-02-08 17:56:00,,0829.6,5.02,0.00,22.8,21.9,00.0,31.7,24.5,07.2,0000.0,0001.12,0003.10,0000.79
2022-02-08 17:57:00,,0829.6,4.98,0.00,22.8,21.9,00.0,31.7,24.6,07.4,0000.0,0001.02,0002.95,0000.73
2022-02-08 17:58:00,,0829.6,5.00,0.00,22.8,21.8,00.0,31.7,24.5,06.4,0000.0,0000.94,0002.74,0000.68
2022-02-08 17:59:00,,0829.5,5.00,0.00,22.8,21.9,00.0,31.7,24.6,06.4,0000.0,0000.90,0002.70,0000.67
